Precipitable_Water
1.28 1.30 1.26 1.22 1.19 1.15 1.11 1.08 1.05 1.03 1.02 1.00 0.96 0.92 0.91 0.89 0.88 0.86 0.85 0.83 0.83 0.81 0.80 0.77 0.77 0.78 0.78 0.79 0.80 0.81 0.82 0.81 0.80 0.75 0.72 0.77 0.70 0.72 0.87 0.87 0.89 0.97 1.00 1.00 1.01 0.86 0.80 0.72 0.70 0.89 1.00 1.05 1.04 1.02 1.03 1.05 1.07 1.08 1.10 1.17 1.21 1.24 1.28
1.34 1.25 1.23 1.19 1.13 1.12 1.06 1.05 1.02 1.02 0.98 0.95 0.90 0.87 0.87 0.87 0.85 0.82 0.82 0.81 0.79 0.79 0.78 0.77 0.77 0.77 0.75 0.72 0.72 0.74 0.75 0.76 0.76 0.77 0.75 0.73 0.74 0.73 0.73 0.74 0.79 0.81 0.82 0.86 0.91 0.94 0.81 0.71 0.68 0.72 0.76 0.92 0.97 0.99 1.03 1.07 1.09 1.10 1.10 1.11 1.14 1.17 1.22
1.24 1.20 1.17 1.12 1.09 1.08 1.02 1.00 0.99 0.95 0.93 0.89 0.86 0.84 0.84 0.85 0.82 0.81 0.80 0.79 0.77 0.76 0.74 0.73 0.71 0.71 0.73 0.71 0.73 0.74 0.77 0.73 0.76 0.75 0.73 0.73 0.74 0.75 0.76 0.74 0.71 0.70 0.69 0.68 0.74 0.76 0.76 0.80 0.70 0.69 0.76 0.76 0.72 0.84 0.97 1.03 1.09 1.11 1.13 1.13 1.12 1.14 1.16
1.19 1.16 1.11 1.05 1.05 1.02 0.98 0.97 0.93 0.89 0.85 0.82 0.83 0.82 0.82 0.83 0.81 0.79 0.77 0.76 0.75 0.75 0.74 0.73 0.72 0.73 0.73 0.73 0.76 0.78 0.76 0.74 0.72 0.72 0.72 0.74 0.73 0.73 0.73 0.74 0.71 0.70 0.67 0.63 0.64 0.66 0.67 0.65 0.63 0.63 0.69 0.76 0.77 0.74 0.85 0.98 1.04 1.12 1.12 1.12 1.11 1.12 1.15
1.16 1.12 1.06 1.00 1.00 0.97 0.96 0.91 0.89 0.86 0.81 0.80 0.79 0.79 0.79 0.79 0.77 0.76 0.77 0.76 0.74 0.74 0.72 0.73 0.74 0.73 0.73 0.76 0.77 0.74 0.73 0.72 0.71 0.69 0.70 0.69 0.70 0.71 0.71 0.72 0.72 0.73 0.71 0.69 0.70 0.72 0.70 0.67 0.67 0.64 0.65 0.70 0.68 0.74 0.83 0.89 0.94 0.95 0.99 1.02 1.09 1.11 1.16
1.12 1.09 1.04 0.99 0.98 0.94 0.91 0.87 0.83 0.78 0.77 0.75 0.75 0.74 0.75 0.75 0.75 0.73 0.73 0.72 0.72 0.73 0.72 0.72 0.72 0.72 0.72 0.73 0.72 0.69 0.70 0.67 0.67 0.67 0.67 0.67 0.68 0.66 0.66 0.71 0.71 0.70 0.71 0.77 0.78 0.75 0.75 0.74 0.69 0.62 0.64 0.69 0.61 0.61 0.67 0.74 0.73 0.83 0.91 0.94 1.01 1.16 1.22
1.06 1.04 1.02 0.98 0.97 0.93 0.91 0.85 0.80 0.77 0.74 0.74 0.73 0.72 0.75 0.76 0.74 0.74 0.73 0.71 0.73 0.73 0.72 0.71 0.72 0.70 0.72 0.70 0.70 0.68 0.68 0.68 0.69 0.69 0.69 0.69 0.70 0.70 0.71 0.68 0.69 0.70 0.71 0.74 0.72 0.71 0.67 0.64 0.60 0.59 0.59 0.61 0.63 0.59 0.64 0.65 0.72 0.68 0.71 0.86 0.99 1.08 1.15
1.04 1.02 1.00 0.99 0.95 0.90 0.87 0.82 0.80 0.79 0.74 0.74 0.74 0.74 0.76 0.75 0.74 0.73 0.72 0.71 0.71 0.70 0.69 0.69 0.69 0.70 0.72 0.70 0.69 0.68 0.68 0.68 0.68 0.68 0.68 0.67 0.67 0.67 0.68 0.67 0.67 0.69 0.71 0.74 0.73 0.71 0.72 0.70 0.68 0.66 0.62 0.54 0.53 0.57 0.56 0.61 0.62 0.62 0.65 0.74 0.87 0.96 1.09
1.01 1.00 0.98 0.97 0.94 0.90 0.83 0.80 0.78 0.78 0.77 0.76 0.75 0.75 0.73 0.72 0.72 0.72 0.70 0.68 0.68 0.67 0.67 0.67 0.68 0.68 0.68 0.65 0.64 0.63 0.58 0.61 0.60 0.60 0.62 0.62 0.62 0.61 0.62 0.63 0.63 0.64 0.71 0.69 0.67 0.67 0.69 0.70 0.71 0.71 0.68 0.63 0.54 0.46 0.53 0.52 0.55 0.56 0.68 0.65 0.71 0.84 0.95
0.99 0.96 0.93 0.91 0.88 0.85 0.81 0.80 0.77 0.76 0.76 0.76 0.74 0.75 0.73 0.72 0.71 0.70 0.67 0.67 0.67 0.67 0.66 0.66 0.65 0.62 0.61 0.58 0.57 0.56 0.52 0.55 0.56 0.56 0.56 0.56 0.59 0.59 0.58 0.59 0.59 0.61 0.62 0.60 0.59 0.58 0.58 0.60 0.60 0.59 0.60 0.56 0.55 0.48 0.43 0.43 0.47 0.48 0.53 0.64 0.59 0.66 0.78
0.96 0.95 0.93 0.89 0.86 0.82 0.80 0.79 0.78 0.76 0.75 0.77 0.76 0.73 0.72 0.70 0.67 0.67 0.65 0.63 0.63 0.61 0.59 0.60 0.60 0.58 0.56 0.54 0.53 0.52 0.51 0.52 0.51 0.53 0.54 0.56 0.56 0.57 0.57 0.56 0.56 0.55 0.53 0.52 0.52 0.53 0.52 0.52 0.50 0.49 0.48 0.49 0.50 0.44 0.43 0.39 0.39 0.48 0.50 0.58 0.62 0.60 0.68
0.94 0.93 0.92 0.89 0.85 0.80 0.77 0.77 0.77 0.77 0.76 0.74 0.73 0.71 0.67 0.65 0.63 0.60 0.59 0.56 0.54 0.54 0.55 0.56 0.58 0.55 0.55 0.53 0.51 0.48 0.49 0.49 0.49 0.49 0.50 0.50 0.52 0.51 0.49 0.48 0.50 0.48 0.48 0.48 0.48 0.49 0.49 0.48 0.46 0.45 0.44 0.45 0.44 0.45 0.43 0.41 0.34 0.38 0.49 0.45 0.49 0.57 0.58
0.92 0.92 0.90 0.86 0.82 0.78 0.77 0.76 0.75 0.73 0.72 0.72 0.69 0.67 0.64 0.60 0.58 0.53 0.50 0.50 0.49 0.49 0.50 0.52 0.54 0.54 0.53 0.51 0.48 0.47 0.47 0.48 0.47 0.47 0.47 0.50 0.49 0.47 0.46 0.45 0.46 0.44 0.45 0.44 0.43 0.44 0.44 0.44 0.43 0.42 0.42 0.41 0.41 0.42 0.42 0.39 0.34 0.31 0.39 0.43 0.46 0.46 0.51
0.90 0.90 0.88 0.86 0.82 0.80 0.78 0.75 0.73 0.73 0.71 0.67 0.66 0.63 0.59 0.55 0.51 0.49 0.47 0.45 0.45 0.45 0.46 0.47 0.50 0.51 0.50 0.49 0.48 0.47 0.47 0.46 0.45 0.45 0.44 0.45 0.46 0.44 0.43 0.43 0.43 0.43 0.44 0.41 0.40 0.41 0.40 0.40 0.40 0.40 0.40 0.39 0.38 0.39 0.39 0.36 0.32 0.31 0.34 0.41 0.43 0.41 0.44
0.89 0.88 0.86 0.85 0.83 0.81 0.76 0.73 0.73 0.71 0.66 0.66 0.63 0.58 0.55 0.52 0.49 0.45 0.43 0.42 0.42 0.42 0.43 0.44 0.46 0.48 0.47 0.47 0.45 0.46 0.44 0.43 0.43 0.42 0.41 0.41 0.42 0.42 0.41 0.40 0.40 0.41 0.42 0.39 0.39 0.38 0.38 0.38 0.38 0.37 0.37 0.37 0.36 0.36 0.40 0.37 0.34 0.33 0.29 0.34 0.36 0.41 0.39
0.87 0.87 0.86 0.85 0.82 0.79 0.76 0.74 0.71 0.66 0.65 0.61 0.58 0.54 0.51 0.48 0.46 0.44 0.42 0.41 0.40 0.39 0.40 0.42 0.45 0.46 0.46 0.45 0.43 0.43 0.42 0.42 0.41 0.39 0.38 0.38 0.39 0.39 0.38 0.37 0.38 0.39 0.40 0.38 0.38 0.38 0.39 0.38 0.38 0.36 0.36 0.37 0.36 0.37 0.39 0.40 0.37 0.32 0.31 0.31 0.36 0.37 0.39
0.85 0.85 0.83 0.83 0.81 0.81 0.79 0.76 0.72 0.66 0.61 0.57 0.53 0.51 0.49 0.46 0.44 0.42 0.40 0.39 0.39 0.38 0.38 0.40 0.42 0.44 0.45 0.45 0.42 0.41 0.40 0.41 0.40 0.39 0.37 0.38 0.38 0.38 0.37 0.36 0.37 0.39 0.39 0.37 0.38 0.37 0.38 0.38 0.37 0.37 0.36 0.37 0.37 0.37 0.38 0.39 0.40 0.37 0.35 0.32 0.34 0.36 0.41
0.86 0.84 0.84 0.84 0.82 0.80 0.77 0.73 0.70 0.65 0.61 0.57 0.54 0.51 0.47 0.45 0.42 0.40 0.38 0.37 0.37 0.36 0.37 0.39 0.40 0.42 0.44 0.46 0.41 0.41 0.40 0.40 0.39 0.37 0.37 0.38 0.38 0.37 0.37 0.37 0.38 0.38 0.38 0.37 0.36 0.36 0.38 0.37 0.38 0.37 0.37 0.38 0.38 0.39 0.40 0.40 0.40 0.40 0.38 0.35 0.35 0.39 0.42
0.89 0.87 0.86 0.84 0.81 0.78 0.75 0.71 0.65 0.61 0.57 0.52 0.49 0.47 0.45 0.45 0.43 0.39 0.38 0.37 0.37 0.37 0.37 0.38 0.39 0.40 0.41 0.44 0.43 0.40 0.39 0.37 0.37 0.37 0.37 0.37 0.36 0.37 0.36 0.37 0.38 0.38 0.38 0.36 0.36 0.37 0.38 0.37 0.38 0.37 0.38 0.39 0.40 0.40 0.40 0.40 0.41 0.41 0.40 0.39 0.39 0.37 0.41
0.85 0.84 0.82 0.81 0.79 0.76 0.72 0.68 0.64 0.60 0.57 0.52 0.48 0.46 0.46 0.44 0.43 0.41 0.38 0.36 0.36 0.36 0.37 0.37 0.37 0.39 0.41 0.41 0.42 0.42 0.38 0.37 0.36 0.37 0.37 0.36 0.36 0.36 0.36 0.37 0.37 0.38 0.37 0.37 0.37 0.37 0.38 0.37 0.37 0.38 0.39 0.40 0.41 0.41 0.41 0.41 0.42 0.41 0.41 0.40 0.41 0.42 0.42
0.82 0.80 0.79 0.77 0.76 0.73 0.70 0.66 0.62 0.60 0.57 0.53 0.50 0.48 0.46 0.44 0.43 0.41 0.38 0.36 0.36 0.37 0.37 0.38 0.39 0.39 0.40 0.40 0.41 0.42 0.38 0.35 0.35 0.35 0.35 0.35 0.35 0.35 0.35 0.36 0.37 0.38 0.38 0.39 0.39 0.39 0.39 0.37 0.38 0.38 0.41 0.42 0.42 0.42 0.41 0.42 0.42 0.41 0.40 0.40 0.40 0.41 0.42
0.83 0.81 0.78 0.75 0.72 0.68 0.64 0.61 0.59 0.57 0.55 0.53 0.51 0.48 0.46 0.43 0.41 0.39 0.39 0.37 0.36 0.37 0.38 0.38 0.39 0.38 0.37 0.37 0.39 0.40 0.38 0.35 0.34 0.34 0.34 0.34 0.34 0.34 0.35 0.36 0.38 0.39 0.39 0.40 0.40 0.40 0.41 0.42 0.40 0.39 0.41 0.43 0.43 0.42 0.42 0.42 0.42 0.41 0.40 0.40 0.40 0.42 0.41
0.79 0.76 0.72 0.69 0.66 0.64 0.61 0.58 0.57 0.55 0.53 0.52 0.51 0.49 0.46 0.43 0.40 0.38 0.37 0.37 0.37 0.38 0.39 0.40 0.40 0.38 0.38 0.37 0.38 0.39 0.39 0.35 0.34 0.33 0.33 0.32 0.33 0.33 0.34 0.35 0.37 0.40 0.38 0.38 0.38 0.39 0.40 0.42 0.44 0.45 0.45 0.45 0.45 0.44 0.43 0.43 0.42 0.42 0.41 0.39 0.39 0.40 0.39
0.75 0.71 0.69 0.65 0.63 0.61 0.59 0.57 0.56 0.53 0.52 0.51 0.49 0.49 0.46 0.42 0.39 0.39 0.37 0.37 0.37 0.37 0.39 0.39 0.38 0.37 0.36 0.37 0.37 0.37 0.37 0.35 0.35 0.34 0.32 0.32 0.31 0.31 0.32 0.35 0.37 0.39 0.38 0.38 0.37 0.37 0.39 0.41 0.43 0.44 0.46 0.48 0.49 0.48 0.45 0.44 0.44 0.44 0.42 0.41 0.41 0.41 0.41
0.69 0.66 0.65 0.62 0.59 0.56 0.55 0.54 0.52 0.52 0.51 0.49 0.50 0.51 0.48 0.45 0.42 0.40 0.39 0.37 0.36 0.36 0.37 0.38 0.36 0.35 0.35 0.36 0.37 0.38 0.38 0.35 0.34 0.34 0.33 0.32 0.31 0.30 0.31 0.34 0.37 0.38 0.38 0.38 0.37 0.37 0.38 0.40 0.42 0.43 0.45 0.47 0.49 0.50 0.52 0.50 0.46 0.44 0.44 0.43 0.42 0.43 0.44
0.66 0.64 0.61 0.59 0.57 0.55 0.54 0.52 0.51 0.50 0.48 0.49 0.50 0.49 0.50 0.49 0.45 0.43 0.39 0.35 0.34 0.34 0.35 0.36 0.35 0.34 0.34 0.35 0.37 0.39 0.38 0.36 0.34 0.33 0.33 0.33 0.31 0.30 0.30 0.33 0.35 0.37 0.38 0.37 0.37 0.37 0.37 0.39 0.41 0.42 0.44 0.46 0.49 0.50 0.51 0.52 0.54 0.53 0.52 0.49 0.47 0.46 0.48
0.64 0.62 0.60 0.58 0.56 0.53 0.50 0.47 0.46 0.46 0.45 0.48 0.49 0.51 0.52 0.49 0.44 0.41 0.38 0.34 0.33 0.32 0.32 0.34 0.34 0.34 0.35 0.36 0.38 0.39 0.37 0.37 0.35 0.32 0.33 0.33 0.32 0.30 0.30 0.32 0.33 0.34 0.35 0.35 0.36 0.35 0.37 0.39 0.40 0.41 0.43 0.45 0.47 0.49 0.51 0.53 0.54 0.56 0.57 0.55 0.52 0.49 0.53
0.61 0.60 0.58 0.56 0.53 0.50 0.48 0.47 0.46 0.47 0.49 0.49 0.49 0.50 0.50 0.47 0.44 0.40 0.37 0.34 0.31 0.30 0.29 0.30 0.32 0.34 0.35 0.37 0.38 0.38 0.35 0.35 0.34 0.33 0.33 0.34 0.33 0.31 0.31 0.32 0.33 0.33 0.34 0.34 0.35 0.35 0.35 0.37 0.39 0.40 0.41 0.43 0.46 0.48 0.50 0.52 0.55 0.57 0.58 0.59 0.59 0.58 0.59
0.59 0.57 0.55 0.52 0.48 0.47 0.48 0.47 0.47 0.49 0.49 0.49 0.49 0.49 0.50 0.49 0.46 0.41 0.37 0.33 0.29 0.26 0.27 0.28 0.30 0.32 0.34 0.36 0.38 0.38 0.35 0.31 0.32 0.32 0.32 0.33 0.33 0.33 0.32 0.31 0.32 0.32 0.32 0.33 0.34 0.34 0.35 0.36 0.37 0.39 0.38 0.40 0.42 0.46 0.50 0.55 0.59 0.62 0.63 0.64 0.64 0.63 0.62
0.56 0.54 0.52 0.48 0.46 0.47 0.50 0.52 0.51 0.52 0.49 0.49 0.46 0.45 0.45 0.44 0.43 0.41 0.37 0.33 0.27 0.25 0.25 0.26 0.27 0.29 0.31 0.33 0.34 0.35 0.34 0.33 0.31 0.30 0.31 0.32 0.33 0.33 0.33 0.32 0.30 0.30 0.31 0.31 0.32 0.33 0.34 0.35 0.34 0.35 0.37 0.37 0.40 0.43 0.47 0.53 0.58 0.62 0.64 0.67 0.67 0.67 0.68
0.52 0.50 0.47 0.46 0.47 0.50 0.54 0.54 0.53 0.53 0.51 0.48 0.44 0.40 0.38 0.36 0.35 0.35 0.34 0.31 0.29 0.25 0.24 0.25 0.25 0.25 0.27 0.28 0.30 0.31 0.32 0.31 0.32 0.31 0.30 0.30 0.30 0.33 0.33 0.31 0.29 0.28 0.28 0.29 0.30 0.31 0.32 0.33 0.33 0.33 0.34 0.35 0.36 0.39 0.44 0.52 0.56 0.59 0.64 0.67 0.68 0.70 0.72
0.48 0.46 0.45 0.47 0.51 0.52 0.53 0.54 0.54 0.54 0.52 0.50 0.47 0.43 0.37 0.33 0.31 0.29 0.29 0.29 0.30 0.27 0.25 0.25 0.24 0.23 0.23 0.24 0.25 0.28 0.29 0.29 0.29 0.30 0.29 0.27 0.29 0.28 0.28 0.30 0.27 0.26 0.27 0.27 0.28 0.29 0.30 0.31 0.32 0.32 0.33 0.34 0.34 0.37 0.42 0.49 0.53 0.54 0.58 0.61 0.65 0.68 0.70
0.46 0.49 0.53 0.56 0.54 0.51 0.50 0.49 0.48 0.47 0.45 0.44 0.42 0.41 0.39 0.35 0.33 0.29 0.28 0.27 0.27 0.26 0.25 0.24 0.24 0.23 0.23 0.22 0.23 0.25 0.26 0.26 0.26 0.28 0.30 0.27 0.26 0.24 0.26 0.26 0.26 0.25 0.26 0.26 0.27 0.27 0.29 0.30 0.30 0.31 0.33 0.32 0.33 0.35 0.43 0.48 0.53 0.54 0.57 0.60 0.62 0.66 0.69
0.55 0.58 0.55 0.52 0.50 0.49 0.49 0.48 0.47 0.45 0.42 0.40 0.37 0.36 0.35 0.35 0.35 0.34 0.32 0.30 0.30 0.28 0.27 0.23 0.23 0.23 0.23 0.23 0.23 0.23 0.23 0.25 0.26 0.27 0.29 0.27 0.27 0.24 0.24 0.25 0.25 0.25 0.25 0.25 0.26 0.27 0.28 0.29 0.29 0.31 0.32 0.31 0.34 0.37 0.42 0.46 0.50 0.51 0.54 0.58 0.62 0.65 0.68
0.57 0.51 0.47 0.45 0.43 0.43 0.45 0.46 0.45 0.43 0.39 0.38 0.38 0.37 0.37 0.36 0.34 0.34 0.34 0.33 0.31 0.30 0.29 0.26 0.22 0.23 0.23 0.23 0.23 0.23 0.23 0.24 0.26 0.26 0.26 0.27 0.27 0.26 0.24 0.25 0.25 0.25 0.25 0.25 0.26 0.27 0.27 0.28 0.28 0.30 0.30 0.32 0.34 0.35 0.38 0.43 0.46 0.47 0.51 0.55 0.59 0.62 0.64
0.47 0.45 0.42 0.41 0.40 0.41 0.41 0.42 0.41 0.39 0.37 0.36 0.36 0.35 0.35 0.34 0.33 0.32 0.32 0.32 0.32 0.31 0.29 0.27 0.22 0.21 0.23 0.23 0.23 0.24 0.24 0.24 0.24 0.26 0.25 0.26 0.25 0.26 0.27 0.26 0.26 0.26 0.25 0.25 0.25 0.26 0.27 0.27 0.27 0.28 0.29 0.30 0.31 0.33 0.35 0.37 0.40 0.42 0.46 0.50 0.54 0.57 0.61
0.42 0.41 0.40 0.39 0.38 0.36 0.37 0.37 0.36 0.36 0.36 0.36 0.36 0.35 0.35 0.34 0.33 0.31 0.28 0.28 0.28 0.28 0.29 0.27 0.23 0.20 0.22 0.23 0.24 0.23 0.23 0.23 0.24 0.24 0.25 0.26 0.25 0.25 0.26 0.26 0.27 0.26 0.25 0.24 0.24 0.25 0.26 0.25 0.26 0.26 0.27 0.28 0.29 0.31 0.32 0.33 0.35 0.37 0.41 0.44 0.48 0.52 0.56
Wind_Speed
9 8 6 6 6 6 6 7 7 7 7 7 8 8 8 9 10 10 11 11 11 12 13 13 14 15 16 16 17 17 18 18 18 18 19 19 19 19 20 20 20 20 20 21 21 21 20 21 21 21 21 21 21 21 21 21 21 21 21 21 21 21 20
7 6 6 6 6 6 6 7 7 7 7 7 8 8 9 9 10 10 11 11 12 13 14 14 15 16 17 17 18 18 18 19 19 19 19 20 20 20 21 21 21 21 22 22 22 22 22 22 22 22 22 23 22 22 22 22 22 21 21 21 21 21 20
7 6 6 6 6 6 7 7 7 7 7 8 8 8 9 10 10 11 11 12 12 13 14 14 15 16 17 18 18 19 19 20 20 20 20 21 21 21 21 22 22 22 23 23 23 24 24 24 24 24 25 24 24 23 23 22 22 22 22 22 22 22 21
6 6 6 6 6 7 7 7 7 7 8 8 8 9 9 10 10 11 12 12 13 13 14 15 16 17 17 18 18 19 20 20 21 21 21 21 22 22 22 22 22 23 23 24 24 25 25 25 26 26 26 26 26 25 24 24 24 23 23 23 23 23 23
6 7 7 7 7 7 7 7 7 7 8 8 9 9 9 10 10 11 12 12 13 14 15 15 17 17 18 19 19 20 20 21 21 21 22 22 22 22 23 23 23 24 24 25 25 26 26 27 27 27 27 27 27 27 27 26 25 24 24 24 24 24 23
7 7 7 7 7 7 7 7 7 7 8 8 9 9 9 10 11 11 12 13 13 14 15 16 17 18 19 19 20 20 21 21 21 22 22 22 23 23 23 23 24 24 25 25 26 27 27 27 28 27 28 28 28 28 28 28 27 25 25 24 24 24 24
8 8 8 7 7 7 7 7 7 7 8 8 8 9 10 10 11 12 12 13 14 15 16 17 18 18 19 20 20 21 21 21 22 22 22 23 23 23 24 24 24 25 25 26 26 27 27 28 28 28 29 29 29 29 28 28 27 27 26 25 25 25 24
9 9 8 8 8 7 7 7 7 8 8 8 8 9 10 11 11 12 13 14 15 15 16 17 18 19 19 20 20 21 22 22 22 23 23 23 24 24 24 24 25 25 26 26 26 27 27 28 28 29 30 30 30 29 28 28 28 28 27 27 26 26 25
9 9 9 8 8 8 7 7 7 7 8 8 9 10 10 11 12 12 13 14 15 16 17 18 18 19 20 21 21 22 23 23 23 23 23 23 24 24 25 25 25 25 26 26 26 27 27 28 28 29 30 30 31 30 29 29 28 28 29 29 29 28 28
9 9 9 8 8 8 7 7 7 7 8 9 9 10 11 11 12 12 13 14 15 16 17 18 19 20 21 22 22 23 23 23 23 23 23 23 24 24 24 25 25 25 25 26 26 26 27 27 28 29 29 30 31 31 31 30 29 28 29 30 29 29 30
9 8 8 8 8 8 8 8 8 8 8 9 9 10 10 11 11 12 13 14 15 16 18 19 20 21 22 22 22 23 23 23 22 23 23 23 23 23 23 24 24 24 25 25 26 26 26 27 27 28 29 30 30 31 32 32 31 30 30 31 31 31 32
8 8 8 8 8 8 8 8 8 8 9 9 10 10 11 11 12 13 14 15 16 17 18 20 20 21 22 22 23 22 22 22 22 22 22 22 23 23 23 24 24 25 25 26 26 26 27 27 28 29 29 29 30 31 32 33 32 31 31 32 33 33 33
9 9 8 8 9 8 8 8 8 9 9 10 10 11 11 12 12 13 14 15 16 18 19 20 21 22 22 22 22 22 22 22 22 22 22 23 23 23 24 24 25 25 26 26 27 28 28 29 29 30 30 30 31 32 32 33 34 33 33 33 34 34 34
9 9 9 9 9 9 9 9 9 9 10 10 11 11 12 12 13 13 14 16 17 18 19 20 21 21 21 21 21 21 21 21 22 22 22 23 23 24 24 25 26 26 27 28 28 29 29 30 30 31 31 31 32 33 33 34 35 35 34 34 35 35 34
10 10 10 10 9 9 10 10 10 10 10 11 11 11 12 12 13 14 15 16 18 19 20 20 21 20 20 20 20 21 21 21 22 23 23 24 24 25 25 26 26 27 28 29 29 30 30 31 31 32 32 32 33 33 34 35 36 36 36 36 35 36 35
11 11 10 10 10 10 10 10 11 11 11 11 11 12 12 13 13 14 15 17 18 19 20 20 20 20 20 20 20 21 22 22 23 23 23 24 25 25 26 26 27 28 29 29 30 30 31 32 32 33 33 33 34 34 34 35 36 37 38 37 36 36 36
12 12 11 11 11 11 11 11 11 11 11 11 12 12 12 13 14 15 16 17 18 19 19 19 20 20 20 20 21 21 22 22 23 23 24 24 25 26 27 27 28 29 30 30 31 32 32 33 33 34 34 34 34 35 35 35 36 37 38 38 38 37 37
12 12 12 12 12 11 11 11 11 11 12 12 12 12 13 13 14 15 16 17 18 19 19 19 20 20 20 20 21 21 22 22 23 23 24 24 25 26 27 28 29 30 31 32 33 33 34 35 35 35 35 35 35 35 36 36 37 37 38 39 39 38 37
12 12 12 12 11 11 11 11 11 11 12 12 12 13 13 14 14 15 16 17 18 18 19 19 20 20 20 20 21 21 22 22 23 23 24 25 26 27 28 29 30 31 32 33 34 35 35 35 36 36 36 35 35 35 36 37 37 37 38 39 39 39 38
11 11 11 11 11 11 11 11 11 11 12 12 12 13 13 14 15 16 16 17 17 18 19 19 20 20 20 20 20 21 22 22 23 23 24 26 27 28 29 30 31 32 33 34 35 35 35 36 36 36 36 35 36 36 37 37 37 38 38 39 39 39 38
10 10 10 11 11 11 11 11 11 11 12 12 12 13 14 14 15 16 16 17 17 18 19 19 20 20 20 20 20 21 22 22 23 24 25 26 27 29 29 30 31 32 33 34 35 36 36 36 36 36 36 36 37 37 37 38 38 38 38 39 40 40 39
10 10 10 10 11 11 11 11 11 11 12 12 13 13 14 14 15 15 16 17 17 18 19 19 20 20 20 20 20 21 21 22 23 24 25 27 28 29 30 31 31 32 33 34 35 36 36 36 36 36 36 37 37 38 38 39 38 39 39 40 40 40 40
10 10 10 10 10 11 11 11 11 12 12 12 13 13 13 14 14 15 16 17 18 19 19 19 20 20 20 20 20 20 21 22 23 24 25 27 28 29 30 30 30 31 32 34 35 35 35 35 35 36 37 38 38 38 39 39 39 39 40 40 41 41 41
9 10 10 10 10 11 11 11 11 12 12 12 13 13 13 14 14 15 16 17 18 18 19 19 20 20 20 20 20 20 21 22 23 24 26 27 28 29 29 29 29 30 32 33 34 35 35 35 36 37 37 37 38 38 39 39 39 40 41 41 41 41 41
9 9 9 10 10 10 11 11 11 11 11 12 12 13 13 14 14 15 16 17 18 18 18 19 19 19 19 19 20 20 21 22 23 24 25 26 27 29 29 29 29 30 31 33 34 35 35 36 36 37 37 37 37 37 38 38 39 40 40 40 40 40 40
9 9 9 10 10 10 11 11 11 11 11 12 12 12 13 14 15 16 16 17 17 17 18 18 18 18 19 20 21 21 22 23 23 24 24 25 27 28 29 29 29 30 31 33 35 35 36 36 36 36 36 35 35 36 36 36 37 38 38 39 39 39 39
9 10 10 10 11 11 11 11 11 11 11 12 12 12 13 14 15 15 16 16 16 17 17 17 18 18 19 20 22 22 22 22 23 24 24 25 26 28 29 30 30 30 32 33 34 35 36 36 35 35 35 35 35 35 36 36 36 37 37 37 38 38 38
10 10 11 11 11 11 11 11 11 11 12 12 12 12 13 13 14 14 15 15 15 16 16 17 18 19 19 21 22 22 22 22 22 23 24 25 26 27 29 30 30 31 32 33 34 35 35 35 35 35 35 35 36 37 37 37 36 37 37 37 37 38 38
10 10 11 11 10 10 11 11 11 11 11 10 11 11 12 12 13 13 13 14 14 15 16 18 19 19 20 21 21 21 21 22 22 23 24 25 26 27 28 30 30 31 32 33 34 34 34 34 35 35 36 37 37 37 37 37 37 37 38 38 38 37 36
10 10 10 10 9 9 9 10 9 9 9 9 10 10 11 11 12 12 12 13 14 15 17 18 19 19 20 20 20 20 20 21 22 23 24 25 26 27 28 29 30 31 31 32 33 33 34 34 35 35 36 37 37 37 36 36 36 37 38 38 37 36 34
10 10 9 9 9 9 9 9 9 9 9 10 10 10 10 10 11 12 12 13 14 16 17 18 19 19 20 20 20 20 20 21 22 23 24 25 26 26 27 29 30 30 30 31 32 32 33 34 35 35 36 37 38 37 36 35 35 36 37 37 35 33 33
9 9 9 9 9 9 9 9 9 10 10 10 10 10 10 10 11 12 13 14 15 16 17 18 19 19 19 20 20 20 20 21 22 23 24 25 25 26 27 28 29 29 30 30 31 32 33 34 34 35 36 37 37 37 36 34 34 35 36 36 33 32 32
9 9 9 9 8 8 8 9 9 10 10 10 10 10 10 11 11 12 13 14 15 16 17 17 18 18 19 19 20 20 21 21 22 23 24 24 24 25 26 26 27 29 29 30 31 32 33 34 34 35 35 36 37 37 36 33 33 35 36 35 32 31 32
9 9 9 9 8 8 8 8 9 9 10 10 10 10 11 11 12 13 14 15 16 16 17 17 17 18 18 19 20 21 21 21 22 22 23 23 23 24 25 26 26 27 28 29 30 31 32 33 34 34 35 36 36 37 35 32 32 34 34 33 31 31 32
10 9 9 9 8 8 8 8 9 9 9 9 10 10 11 12 13 14 14 15 15 16 16 17 17 17 18 19 20 21 21 21 22 22 22 22 23 23 24 25 26 27 28 29 30 31 31 33 33 33 35 35 36 37 35 33 32 32 31 30 31 31 31
10 9 9 9 8 7 8 8 8 8 8 9 10 10 11 12 12 13 13 14 15 15 16 16 17 17 18 19 20 20 21 21 21 21 21 21 22 22 23 24 25 27 28 28 29 30 31 32 32 33 34 35 35 36 36 34 32 31 29 29 30 31 31
9 9 9 8 7 7 8 8 8 8 9 9 10 10 11 11 12 12 13 13 14 14 15 16 16 17 18 19 19 20 20 21 21 21 20 20 21 21 22 23 24 26 27 27 28 29 30 31 32 33 34 34 34 35 36 35 34 31 28 28 30 31 31
Wind_Direction
205 214 230 242 251 259 266 274 279 285 293 299 302 304 307 309 309 311 312 313 313 314 315 316 317 318 319 318 318 317 317 317 317 317 316 316 316 315 315 315 315 315 315 314 313 312 312 311 312 313 312 311 309 307 307 307 306 306 304 302 300 299 298
215 228 238 244 253 260 265 274 281 288 294 298 301 305 308 311 313 314 314 313 313 314 315 316 316 317 318 318 317 317 317 317 316 315 313 313 313 312 312 312 312 313 314 314 314 314 313 312 312 312 312 312 310 308 308 306 305 305 304 303 301 299 297
231 237 240 245 253 260 266 273 280 287 292 297 301 306 308 311 313 314 314 314 315 315 315 315 316 316 317 318 317 316 317 317 316 315 314 312 312 311 311 311 311 312 312 312 313 313 312 311 310 311 311 312 311 310 310 308 306 304 303 302 301 299 298
236 236 240 245 253 261 267 274 282 287 292 295 299 303 307 310 312 313 314 315 316 316 315 316 316 317 317 317 317 317 317 318 318 317 315 313 313 312 312 311 311 312 311 310 311 311 309 308 308 308 309 310 310 309 309 309 307 305 302 300 298 298 297
233 235 240 246 254 262 268 276 284 289 292 294 297 301 306 310 312 314 316 316 316 317 317 317 317 318 318 317 318 318 318 318 318 317 315 314 313 313 313 312 311 310 310 310 310 309 308 307 306 306 307 308 307 307 307 307 306 305 303 301 298 296 295
233 237 244 250 257 263 269 276 281 285 290 294 299 303 307 311 313 314 316 316 316 317 318 318 319 319 319 318 318 318 317 317 317 315 314 313 313 312 312 311 310 310 310 309 309 308 307 307 306 305 305 306 305 304 304 304 304 303 303 302 301 298 296
235 240 245 250 256 261 267 273 277 281 287 294 301 305 308 311 313 314 316 317 317 318 319 319 320 320 319 319 318 318 317 316 316 315 314 313 313 312 312 311 311 310 309 309 308 308 307 307 306 305 304 304 303 303 303 303 302 301 300 300 300 300 298
235 239 243 248 253 259 266 272 276 281 287 295 300 304 308 311 312 315 317 317 318 319 320 320 320 320 320 319 318 318 318 317 316 316 315 315 314 313 312 312 311 311 310 309 309 308 307 306 305 305 304 303 302 302 302 301 301 300 299 298 297 297 298
234 238 242 247 252 258 265 271 276 283 289 296 300 304 308 311 312 314 316 317 319 320 321 321 320 320 320 319 319 319 318 317 317 317 316 315 315 314 313 313 312 311 310 309 308 308 307 306 305 304 304 303 303 302 301 300 299 298 298 298 296 294 294
234 239 243 248 253 258 265 273 278 285 291 296 300 304 308 310 312 314 315 316 318 320 320 320 320 320 320 320 320 319 319 318 318 317 317 316 316 315 314 314 313 312 312 311 309 308 307 306 305 304 303 303 302 301 301 300 299 297 297 297 295 293 292
235 240 246 251 255 259 265 273 278 283 290 296 300 304 307 309 312 313 314 315 318 320 320 320 321 322 321 321 321 320 320 320 320 319 319 318 317 317 317 317 316 315 314 313 312 311 310 308 307 306 305 304 302 301 300 299 298 297 297 295 294 293 292
236 241 247 252 257 261 265 271 278 284 290 295 299 302 306 308 310 312 313 316 318 320 321 321 322 322 322 322 322 322 323 323 323 322 322 322 320 320 320 320 319 318 316 315 314 313 312 311 310 309 308 306 304 302 301 299 298 297 297 295 294 293 292
237 243 249 254 259 262 266 271 277 284 289 294 298 301 304 307 309 311 314 316 318 320 321 322 322 322 323 324 324 324 325 325 324 324 324 324 323 322 322 321 320 319 318 316 315 314 313 312 311 310 309 307 306 304 302 300 298 298 298 296 295 294 293
239 245 250 255 259 263 267 270 275 281 286 291 296 299 302 305 308 311 313 316 318 320 321 322 322 323 324 325 325 325 325 326 326 325 325 324 324 323 322 321 320 319 318 317 316 315 314 313 312 311 309 307 306 304 303 300 298 297 298 298 296 295 294
241 246 251 256 260 263 267 270 273 278 283 288 294 297 300 304 307 310 313 316 319 320 321 323 323 323 324 325 326 326 327 327 327 326 325 325 324 323 322 321 321 320 318 318 317 316 315 314 313 311 310 308 306 305 303 300 299 297 297 298 297 296 295
243 248 253 257 261 264 267 269 272 276 280 286 292 296 300 303 306 310 314 316 319 321 322 323 323 323 325 326 327 327 328 328 327 326 326 326 325 324 324 323 322 321 320 319 318 317 316 315 314 312 311 309 307 305 303 301 299 297 297 297 297 296 295
247 250 254 258 260 263 266 268 271 275 279 284 290 295 300 304 307 311 314 317 320 321 322 323 323 323 325 327 328 328 329 328 327 327 327 327 326 326 325 324 323 322 321 320 319 318 317 316 315 313 311 309 307 306 304 302 300 298 297 297 297 296 294
247 250 253 256 258 261 264 267 271 275 278 283 288 293 299 304 308 312 315 318 320 321 323 324 323 323 325 327 328 328 329 328 327 327 327 327 327 326 326 325 324 324 323 322 321 320 318 317 315 313 312 310 308 306 305 303 301 299 297 296 296 296 294
245 248 251 254 256 259 263 267 271 275 279 283 288 294 299 304 308 312 316 319 320 321 323 325 324 323 324 326 327 328 328 327 327 328 328 328 328 328 327 326 326 325 324 323 322 321 319 318 316 314 312 311 309 308 307 305 302 300 298 297 296 295 294
244 247 250 252 255 259 263 268 272 277 281 285 289 295 300 304 308 312 315 317 319 321 323 325 325 324 325 326 327 327 326 326 327 327 327 329 330 330 329 328 327 327 326 325 324 322 320 318 317 315 313 311 310 309 307 306 303 301 300 298 297 296 294
244 248 252 253 256 260 264 268 273 277 281 285 290 295 299 304 307 310 313 316 319 321 324 325 326 325 325 325 325 326 325 326 327 328 329 330 331 331 330 329 328 328 328 327 325 323 321 319 318 316 315 313 311 310 308 306 305 303 301 300 298 297 295
247 250 254 255 258 261 265 270 273 276 280 284 289 294 298 302 306 309 312 316 320 322 323 324 324 324 324 324 325 325 325 326 328 329 330 331 331 330 330 329 329 329 330 330 328 327 324 322 321 319 317 316 313 312 310 308 306 304 303 302 300 299 296
247 251 255 258 261 265 269 272 274 276 280 283 288 292 296 301 305 309 313 317 320 322 322 322 323 323 323 323 324 324 325 327 328 329 330 331 330 330 330 329 329 331 332 332 332 331 329 327 326 323 321 318 315 314 312 310 308 307 305 303 302 300 298
247 252 256 261 265 268 272 274 275 277 280 283 287 291 296 300 305 309 313 317 321 321 321 321 322 323 324 325 325 326 326 328 328 328 329 330 331 332 331 330 330 332 333 333 334 334 333 332 330 327 325 322 319 317 315 313 311 309 307 304 303 301 298
250 256 260 264 267 270 273 274 275 277 280 284 287 291 296 300 304 308 312 318 321 321 320 321 323 324 326 327 327 327 327 329 329 328 328 330 332 333 333 332 332 333 334 335 336 336 336 335 333 331 328 326 323 322 320 317 315 312 309 306 304 302 300
255 261 265 268 270 272 273 272 274 277 280 284 287 291 296 299 303 307 312 318 322 321 319 319 322 325 328 329 329 328 327 328 329 329 328 329 332 334 334 334 334 334 335 336 337 338 337 336 335 333 332 330 328 327 325 324 321 318 315 312 309 306 304
258 263 267 271 272 273 272 272 275 278 281 284 287 291 295 299 303 308 313 317 321 322 321 321 323 326 328 329 329 329 328 327 328 330 329 329 332 334 335 335 335 336 337 337 338 338 338 337 336 336 336 335 334 333 331 329 328 325 322 319 316 313 310
260 264 267 269 271 272 273 274 276 279 282 284 287 290 294 299 305 309 313 317 320 323 325 326 326 327 329 329 329 329 328 328 329 330 331 331 332 334 336 336 337 337 338 338 339 339 339 339 339 339 340 339 338 337 335 334 332 329 327 325 321 318 314
262 265 267 267 268 270 272 272 273 276 279 283 287 292 296 301 305 309 312 316 321 325 328 330 330 329 330 330 329 328 329 330 330 331 331 332 332 334 336 337 338 339 339 340 340 341 341 341 341 341 340 340 339 338 338 337 335 333 332 330 327 324 321
262 264 265 264 265 267 267 266 267 271 277 284 290 295 298 302 305 308 311 316 322 327 330 332 333 332 331 331 330 329 329 330 331 332 333 333 333 334 336 338 340 340 341 342 342 343 344 344 344 342 341 341 340 338 338 339 339 339 337 335 333 331 329
260 260 261 261 262 263 262 259 261 268 276 284 290 295 298 302 305 309 313 317 322 327 330 332 334 334 333 332 332 331 331 331 332 334 334 334 335 336 337 339 341 342 343 344 345 346 346 346 345 344 343 343 342 340 339 340 341 343 342 340 339 338 337
255 257 260 261 261 259 256 256 260 268 275 282 287 291 295 300 306 312 316 319 322 326 328 331 333 334 335 335 335 335 334 334 334 335 335 335 337 338 339 341 343 344 346 347 347 348 348 348 347 347 346 346 345 344 342 343 344 345 346 345 344 344 343
253 257 260 260 258 255 253 257 263 270 277 281 285 289 294 299 305 311 316 321 324 326 327 329 331 334 335 337 338 337 336 336 336 336 335 335 338 341 342 343 345 346 348 350 349 349 350 350 350 350 349 349 349 348 346 347 347 349 350 350 349 349 350
254 256 258 256 252 250 253 260 267 271 276 280 284 290 295 301 306 310 314 319 323 325 327 327 329 332 335 338 339 339 338 337 337 337 336 337 339 342 344 346 347 348 350 351 350 351 352 352 352 353 353 354 353 351 350 351 350 351 353 355 356 356 356
252 252 252 250 248 250 258 266 270 270 273 278 284 289 294 300 306 310 314 317 319 322 326 328 329 331 334 337 339 339 338 338 338 339 338 339 341 343 345 347 349 350 350 351 351 352 353 354 355 356 356 357 357 356 355 355 354 354 356 359 1 2 1
247 246 245 244 247 255 262 267 269 270 274 281 286 291 296 301 306 310 313 315 317 319 323 328 331 332 334 337 338 338 338 338 339 340 340 341 344 346 347 349 350 350 351 352 352 353 355 356 357 358 359 360 1 1 0 0 359 358 359 1 3 5 4
240 240 240 242 248 256 261 266 269 273 279 285 290 295 300 303 307 310 312 315 318 319 322 327 332 334 335 337 338 338 339 340 341 342 343 345 347 348 349 350 350 350 351 353 355 355 357 358 359 -0 1 2 3 5 5 5 4 2 2 3 4 6 7